Location: Cork
(51.8990°N, 8.4960°W)
Time: 06:58:43
(UTC+01:00)

Iridium 66 - Visible Passes

Search period start: 01 September 2015 00:00
Search period end: 11 September 2015 00:00
Orbit: 776 x 779 km, 86.4° (Epoch: 31 August)

Date Brightness Start Highest point End Pass type
(mag) Time Alt. Az. Time Alt. Az. Time Alt. Az.
01 Sep 7.5 00:52:32 10° NNW 00:56:51 26° W 00:57:25 26° W visible
01 Sep 6.9 22:37:57 10° NNE 22:42:37 32° ENE 22:43:30 30° E visible
02 Sep 6.8 00:18:36 10° NNW 00:23:31 42° W 00:23:58 41° W visible
02 Sep 7.5 22:04:55 10° NNE 22:08:43 20° ENE 22:10:03 19° E visible
02 Sep 6.0 23:44:52 10° N 23:50:05 71° W 23:50:32 67° SW visible
03 Sep 8.5 01:27:56 10° NW 01:29:57 12° WNW 01:31:00 11° W visible
03 Sep 8.0 21:32:29 10° NE 21:34:39 13° ENE 21:36:38 11° E visible
03 Sep 5.9 23:11:18 10° N 23:16:33 71° E 23:17:06 65° SE visible
04 Sep 8.0 00:53:02 10° NNW 00:56:47 20° WNW 00:57:34 19° W visible
04 Sep 6.5 22:37:53 10° N 22:42:52 43° ENE 22:43:40 40° ESE visible
05 Sep 7.3 00:18:54 10° NNW 00:23:30 32° W 00:24:09 31° W visible
05 Sep 7.1 22:04:40 10° NNE 22:09:03 27° ENE 22:10:15 25° E visible
05 Sep 6.5 23:45:03 10° NNW 23:50:08 52° W 23:50:44 49° WSW visible
06 Sep 7.7 21:31:47 10° NNE 21:35:05 17° ENE 21:36:50 15° E visible
06 Sep 5.9 23:11:23 10° N 23:16:39 86° W 23:17:19 69° S visible
07 Sep 8.3 00:53:45 10° NW 00:56:40 15° WNW 00:57:47 14° W visible
07 Sep 8.1 21:00:14 10° NE 21:00:58 10° ENE 21:01:58 10° ENE visible
07 Sep 6.1 22:37:53 10° N 22:43:03 58° E 22:43:55 51° ESE visible
08 Sep 7.8 00:19:17 10° NNW 00:23:27 24° W 00:24:23 22° W visible
08 Sep 6.7 22:04:32 10° N 22:09:19 35° ENE 22:10:31 32° ESE visible
08 Sep 7.1 23:45:18 10° NNW 23:50:08 38° W 23:50:59 36° WSW visible
09 Sep 7.3 21:31:25 10° NNE 21:35:26 22° ENE 21:37:08 19° E visible
09 Sep 6.3 23:11:31 10° N 23:16:43 64° W 23:17:36 54° SW visible
10 Sep 8.7 00:55:13 10° NW 00:56:30 11° WNW 00:57:31 10° W visible
10 Sep 7.8 20:58:47 10° NNE 21:01:25 14° ENE 21:03:45 11° E visible
10 Sep 5.9 22:37:55 10° N 22:43:11 79° E 22:44:13 58° SSE visible
